[[{"header":{"parameterUnit":"m.s-1","parameterCategory":1,"la1":30.2991,"la2":30.254,"lo1":-89.0895,"lo2":-89.0444,"dy":0.0017,"dx":0.0017,"nx":28,"ny":28,"refTime":"2024-06-14T03:00:00:Z","depth":0,"parameterNumber":2,"parameterNumberName":"U-component_of_WINDS"},"data":[0,0,0,0,0,0,0,0,0,0,0,0,0,0,0,0,0,0,0,0,0,0,0,0,0,0,0,0,0,0,0,0,0,0,0,0,0,0,0,0,0,0,0,0,0,0,0,0,0,0,0,0,0,0,0,0,0,0,-0.226,-0.2259,0,-0.2169,-0.2168,-0.2167,-0.2104,-0.2104,-0.2103,-0.2103,-0.2007,-0.2005,-0.2003,0,0,0,0,0,0,0,0,0,0,0,0,0,-0.2381,-0.2379,-0.226,-0.2259,-0.2258,-0.2169,-0.2168,-0.2166,-0.2104,-0.2103,-0.2103,-0.2102,-0.2008,-0.2005,-0.2003,0,0,0,0,0,0,0,0,0,0,0,0,0,-0.2313,-0.2378,-0.2261,-0.2216,-0.2211,-0.2169,-0.2168,-0.2166,-0.2104,-0.2103,-0.2103,-0.2102,-0.2009,-0.2006,-0.2003,-0.1997,0,0,-0.1993,-0.1991,0,0,0,0,0,0,0,0,-0.2317,-0.2308,-0.2224,-0.2219,-0.2214,-0.2147,-0.2175,-0.2109,-0.2104,-0.2145,-0.2103,-0.2102,-0.2054,-0.2047,-0.2032,-0.1992,-0.1988,-0.1993,-0.1991,-0.1989,-0.1988,0,0,0,0,0,0,0,-0.2322,-0.2312,-0.2224,-0.2223,-0.2217,-0.2201,-0.219,-0.2162,-0.2104,-0.2141,-0.2136,-0.2127,-0.2051,-0.2035,-0.2029,-0.1987,-0.1993,-0.199,-0.1988,-0.1987,-0.1939,-0.1939,0,0,0,0,0,0,-0.2333,-0.2316,-0.2227,-0.2221,-0.2265,-0.2199,-0.2188,-0.2169,-0.2105,-0.2094,-0.2127,-0.2124,-0.2041,-0.2033,-0.2025,-0.2014,-0.1989,-0.1986,-0.1985,-0.1938,-0.1939,-0.1939,0,0,0,0,0,0,-0.2336,-0.2326,-0.2231,-0.2268,-0.2254,-0.2198,-0.2178,-0.2168,-0.2151,-0.2094,-0.2083,-0.2121,-0.204,-0.203,-0.2004,-0.201,-0.1985,-0.1982,-0.1937,-0.1938,-0.1939,-0.1993,0,0,0,0,0,0,-0.234,-0.2327,-0.2325,-0.2268,-0.2253,-0.2212,-0.2178,-0.2166,-0.2146,-0.2141,-0.2085,-0.2075,-0.2038,-0.201,-0.2001,-0.2005,-0.198,-0.1936,-0.1938,-0.1939,-0.199,-0.1995,-0.2,0,0,0,0,0,-0.2344,-0.2343,-0.2325,-0.2314,-0.2248,-0.2212,-0.2203,-0.2161,-0.2147,-0.2143,-0.2107,-0.2077,-0.2011,-0.2008,-0.1998,-0.2001,-0.1936,-0.1937,-0.1939,-0.1988,-0.1994,-0.2,0,0,0,0,0,0,-0.2401,-0.2335,-0.2314,-0.2294,-0.2259,-0.2202,-0.2196,-0.2169,-0.2137,-0.2134,-0.2082,-0.207,-0.2051,-0.2023,-0.202,-0.1992,-0.197,-0.1969,-0.2011,-0.2016,-0.2021,-0.2028,-0.1977,0,0,0,0,0,-0.2411,-0.2388,-0.2331,-0.2319,-0.2303,-0.2253,-0.2236,-0.2207,-0.2168,-0.2153,-0.2115,-0.2079,-0.2049,-0.2031,-0.2002,-0.1986,-0.1973,-0.1984,-0.1988,-0.1993,-0.1993,-0.1983,-0.1987,-0.1944,-0.1944,-0.1944,0,0,-0.2432,-0.2393,-0.2381,-0.233,-0.2299,-0.2277,-0.2241,-0.2218,-0.22,-0.2149,-0.2123,-0.2094,-0.205,-0.203,-0.202,-0.2007,-0.2002,-0.1995,-0.1998,-0.1996,-0.1985,-0.1989,-0.1993,-0.1945,-0.1945,-0.1945,0,0,-0.2458,-0.2426,-0.2413,-0.2384,-0.2339,-0.2305,-0.2303,-0.2249,-0.2228,-0.2201,-0.2163,-0.2141,-0.2092,-0.2063,-0.2042,-0.2058,-0.203,-0.205,-0.2075,-0.2066,-0.207,-0.2072,-0.2078,-0.2081,-0.205,-0.205,-0.205,0,-0.2489,-0.2454,-0.2409,-0.2389,-0.2368,-0.2321,-0.2308,-0.2281,-0.2229,-0.2215,-0.2202,-0.214,-0.2107,-0.208,-0.2084,-0.2068,-0.2063,-0.2056,-0.2073,-0.2075,-0.2077,-0.2082,-0.2085,-0.2053,-0.2053,-0.2052,-0.2052,0,-0.2495,-0.247,-0.2465,-0.2416,-0.2394,-0.2377,-0.2331,-0.2314,-0.2287,-0.2255,-0.2229,-0.2188,-0.215,-0.2141,-0.2114,-0.211,-0.2104,-0.2083,-0.2059,-0.2085,-0.2089,-0.209,-0.2057,-0.2056,-0.2055,-0.2055,0,0,-0.2553,-0.2481,-0.248,-0.2457,-0.2405,-0.2385,-0.2366,-0.2329,-0.2316,-0.2281,-0.2264,-0.2225,-0.2205,-0.2181,-0.215,-0.2143,-0.2159,-0.2122,-0.212,-0.213,-0.2153,-0.2169,-0.2172,-0.214,-0.214,-0.214,-0.2156,0,-0.2571,-0.2535,-0.2495,-0.2473,-0.2451,-0.2407,-0.2391,-0.2357,-0.2327,-0.2303,-0.227,-0.2243,-0.2219,-0.2204,-0.2195,-0.2159,-0.2163,-0.2157,-0.2124,-0.2123,-0.2136,-0.2174,-0.2191,-0.2208,-0.2158,-0.2158,-0.2158,0,-0.2587,-0.2556,-0.2532,-0.2482,-0.2471,-0.2457,-0.242,-0.2398,-0.2359,-0.2338,-0.2312,-0.228,-0.2258,-0.2238,-0.2207,-0.2204,-0.2188,-0.2169,-0.2169,-0.2164,-0.2142,-0.217,-0.2213,-0.2216,-0.216,-0.216,-0.216,0,-0.2633,-0.2584,-0.2564,-0.2546,-0.2487,-0.2479,-0.2454,-0.2414,-0.2394,-0.2362,-0.2349,-0.2315,-0.2296,-0.2271,-0.223,-0.2219,-0.2204,-0.218,-0.2186,-0.2187,-0.2184,-0.2185,-0.2224,-0.2174,-0.2174,-0.2174,-0.2174,0,-0.2657,-0.2644,-0.2583,-0.2571,-0.2555,-0.251,-0.2496,-0.2467,-0.2432,-0.2413,-0.2373,-0.2356,-0.2303,-0.228,-0.2248,-0.2228,-0.222,-0.2202,-0.2194,-0.2206,-0.2208,-0.2194,-0.2192,-0.2174,-0.2174,-0.2174,-0.2174,0,-0.2705,-0.2664,-0.2639,-0.2586,-0.2572,-0.2563,-0.2517,-0.2503,-0.2472,-0.2448,-0.244,-0.2391,-0.2361,-0.2319,-0.2276,-0.2255,-0.2239,-0.2226,-0.2253,-0.2248,-0.2256,-0.2256,-0.2288,-0.229,-0.2239,-0.224,-0.224,0,-0.2724,-0.2713,-0.2659,-0.2643,-0.262,-0.2596,-0.2576,-0.2531,-0.2512,-0.2467,-0.2459,-0.2427,-0.2399,-0.2354,-0.2314,-0.2282,-0.2267,-0.2281,-0.2262,-0.2275,-0.2268,-0.2269,-0.2268,-0.2285,-0.2286,-0.2287,-0.2287,0,-0.2761,-0.2741,-0.2714,-0.2681,-0.2658,-0.263,-0.2599,-0.2589,-0.2537,-0.2518,-0.2488,-0.2466,-0.2424,-0.2392,-0.2355,-0.2329,-0.23,-0.2294,-0.2293,-0.2305,-0.2322,-0.2313,-0.2265,-0.2293,-0.2292,-0.2292,-0.2292,-0.2291,-0.2794,-0.2783,-0.2744,-0.2715,-0.2688,-0.266,-0.2645,-0.2612,-0.2586,-0.2548,-0.2523,-0.2495,-0.2456,-0.2403,-0.2378,-0.2355,-0.2343,-0.2342,-0.2342,-0.2343,-0.2347,-0.2326,-0.2348,-0.2348,-0.2348,-0.2348,-0.2348,0,-0.283,-0.2803,-0.2777,-0.2736,-0.2714,-0.2689,-0.2654,-0.2637,-0.2612,-0.2579,-0.2553,-0.2519,-0.2488,-0.2446,-0.2413,-0.2403,-0.2389,-0.2396,-0.2396,-0.2391,-0.236,-0.2364,-0.2408,-0.2408,-0.2408,-0.2408,-0.2408,-0.2408,-0.2846,-0.2825,-0.2801,-0.2767,-0.2739,-0.2712,-0.2694,-0.2668,-0.2642,-0.2606,-0.2581,-0.2554,-0.2517,-0.2481,-0.2452,-0.244,-0.243,-0.2441,-0.2426,-0.2398,-0.2393,-0.2387,-0.2391,-0.2439,-0.244,-0.2458,-0.2458,-0.2458]},{"header":{"parameterUnit":"m.s-1","parameterCategory":1,"la1":30.2991,"la2":30.254,"lo1":-89.0895,"lo2":-89.0444,"dy":0.0017,"dx":0.0017,"nx":28,"ny":28,"refTime":"2024-06-14T03:00:00:Z","depth":0,"parameterNumber":3,"parameterNumberName":"V-component_of_WINDS"},"data":[0,0,0,0,0,0,0,0,0,0,0,0,0,0,0,0,0,0,0,0,0,0,0,0,0,0,0,0,0,0,0,0,0,0,0,0,0,0,0,0,0,0,0,0,0,0,0,0,0,0,0,0,0,0,0,0,0,0,2.2219,2.2219,0,2.2224,2.2224,2.2224,2.2259,2.226,2.2261,2.2262,2.2262,2.2261,2.2261,0,0,0,0,0,0,0,0,0,0,0,0,0,2.2237,2.2236,2.2219,2.2219,2.2219,2.2224,2.2224,2.2224,2.2259,2.226,2.2261,2.2262,2.2262,2.2261,2.226,0,0,0,0,0,0,0,0,0,0,0,0,0,2.2234,2.2236,2.2219,2.2238,2.2239,2.2224,2.2224,2.2224,2.2259,2.226,2.2262,2.2263,2.2263,2.2262,2.226,2.2227,0,0,2.2257,2.2256,0,0,0,0,0,0,0,0,2.2234,2.2233,2.2235,2.2236,2.2238,2.2243,2.223,2.2225,2.2259,2.2251,2.2262,2.2263,2.2254,2.2254,2.2252,2.2227,2.2227,2.2257,2.2256,2.2255,2.2255,0,0,0,0,0,0,0,2.2234,2.2233,2.2221,2.2235,2.2237,2.2244,2.2245,2.223,2.2245,2.2252,2.2255,2.2255,2.2255,2.2253,2.2252,2.2227,2.2257,2.2255,2.2255,2.2254,2.2174,2.2173,0,0,0,0,0,0,2.2233,2.2233,2.2221,2.2221,2.224,2.2243,2.2244,2.224,2.2245,2.2248,2.2254,2.2257,2.2254,2.2253,2.2252,2.2213,2.2255,2.2254,2.2253,2.2176,2.2174,2.2173,0,0,0,0,0,0,2.2233,2.2231,2.2221,2.2228,2.2227,2.2241,2.2236,2.2239,2.2237,2.2247,2.2249,2.2248,2.2255,2.2254,2.2233,2.2214,2.2254,2.2252,2.2177,2.2175,2.2173,2.2135,0,0,0,0,0,0,2.2233,2.2231,2.2219,2.2228,2.2227,2.2202,2.2235,2.2238,2.2235,2.2239,2.2243,2.2244,2.2256,2.2235,2.2232,2.2213,2.2252,2.2179,2.2177,2.2174,2.2138,2.2131,2.2126,0,0,0,0,0,2.2234,2.2207,2.2218,2.2216,2.2212,2.2201,2.2201,2.2216,2.2233,2.2221,2.2228,2.2244,2.2216,2.2232,2.2229,2.2209,2.2181,2.2177,2.2174,2.214,2.2133,2.2126,0,0,0,0,0,0,2.2193,2.2208,2.2221,2.2196,2.2198,2.2207,2.2192,2.2207,2.2202,2.2206,2.2224,2.2224,2.2201,2.2203,2.2221,2.2177,2.2201,2.2198,2.2176,2.2169,2.2164,2.2163,2.2251,0,0,0,0,0,2.2182,2.2173,2.2186,2.2163,2.2163,2.2177,2.2173,2.2185,2.2186,2.2187,2.2192,2.2191,2.2183,2.2176,2.2169,2.2139,2.214,2.2124,2.2118,2.2113,2.2109,2.2093,2.2086,2.2162,2.2162,2.2162,0,0,2.2158,2.2165,2.2158,2.2155,2.2157,2.2147,2.2177,2.2165,2.2157,2.2184,2.2165,2.2169,2.217,2.2145,2.2134,2.2146,2.2089,2.2109,2.2105,2.2104,2.2089,2.2082,2.2076,2.216,2.2161,2.2161,0,0,2.2108,2.2113,2.2094,2.2097,2.2101,2.2111,2.2106,2.2114,2.2118,2.21,2.2121,2.2111,2.2095,2.2095,2.2093,2.2045,2.206,2.2042,2.2011,2.1996,2.199,2.1985,2.1967,2.1961,2.2038,2.2038,2.2038,0,2.2077,2.2063,2.2082,2.2069,2.2067,2.2094,2.2074,2.2075,2.2076,2.2073,2.2087,2.2069,2.2072,2.2047,2.2035,2.2033,2.2027,2.2041,2.1989,2.1984,2.198,2.1963,2.1956,2.2036,2.2036,2.2036,2.2037,0,2.2024,2.2014,2.1999,2.2001,2.1997,2.1981,2.1997,2.1991,2.2003,2.2011,2.1993,2.1997,2.1991,2.1986,2.1997,2.1962,2.197,2.1987,2.2011,2.197,2.1955,2.1948,2.2033,2.2033,2.2034,2.2035,0,0,2.1948,2.1962,2.1956,2.1957,2.1964,2.1956,2.1941,2.1937,2.1932,2.1931,2.1918,2.1906,2.1922,2.1919,2.1931,2.1917,2.1879,2.1936,2.1936,2.1925,2.1841,2.1828,2.182,2.189,2.1889,2.1888,2.1841,0,2.19,2.1876,2.1893,2.1866,2.1857,2.1883,2.187,2.1872,2.1879,2.1872,2.188,2.1871,2.1892,2.1891,2.1879,2.1886,2.1862,2.189,2.1877,2.1876,2.1875,2.1812,2.1798,2.1753,2.1835,2.1834,2.1833,0,2.184,2.1839,2.1811,2.1821,2.1818,2.1806,2.1804,2.1797,2.18,2.1807,2.1805,2.182,2.1805,2.1831,2.181,2.1828,2.1824,2.1827,2.1825,2.1824,2.1851,2.1808,2.1739,2.1732,2.1824,2.1825,2.1825,0,2.1786,2.1778,2.1761,2.1761,2.1772,2.1763,2.1767,2.1772,2.1769,2.1767,2.1765,2.176,2.1758,2.1754,2.1767,2.1784,2.1744,2.1771,2.1748,2.1748,2.1738,2.1738,2.1666,2.1736,2.1736,2.1737,2.1737,0,2.173,2.1712,2.1737,2.1726,2.1706,2.1727,2.1706,2.1713,2.1717,2.1707,2.1729,2.1719,2.1738,2.173,2.1741,2.1722,2.172,2.1724,2.1727,2.1722,2.1721,2.1718,2.1722,2.1735,2.1735,2.1736,2.1736,0,2.1666,2.1683,2.1665,2.1678,2.1681,2.1666,2.1676,2.1666,2.1676,2.1663,2.1661,2.1676,2.1668,2.1682,2.1674,2.1681,2.1655,2.1663,2.1654,2.1656,2.1633,2.1635,2.1556,2.1547,2.1624,2.1623,2.1622,0,2.1629,2.1616,2.1628,2.1624,2.1627,2.162,2.1617,2.1637,2.1633,2.1637,2.1626,2.162,2.1616,2.1601,2.161,2.1605,2.1612,2.1585,2.1611,2.1607,2.1611,2.1611,2.161,2.1579,2.1579,2.1578,2.1577,0,2.1561,2.157,2.1566,2.1566,2.1562,2.1562,2.1563,2.1558,2.1579,2.1574,2.1566,2.1563,2.1557,2.155,2.1548,2.155,2.1567,2.1569,2.1564,2.1558,2.1553,2.1555,2.1639,2.1571,2.1571,2.1572,2.1572,2.1572,2.1509,2.1499,2.1506,2.1501,2.1505,2.1506,2.1497,2.1507,2.1502,2.1499,2.1511,2.1501,2.1505,2.1503,2.1505,2.1496,2.1508,2.15,2.1498,2.1495,2.1492,2.1555,2.1496,2.1496,2.1496,2.1496,2.1497,0,2.1442,2.1448,2.1444,2.1446,2.1442,2.146,2.1463,2.1458,2.1449,2.1452,2.1449,2.144,2.1434,2.1444,2.1439,2.1431,2.1438,2.1429,2.1429,2.1429,2.1482,2.1487,2.1423,2.1423,2.1423,2.1423,2.1423,2.1423,2.1406,2.139,2.14,2.1386,2.1392,2.1384,2.1384,2.1384,2.1387,2.1377,2.1373,2.138,2.1386,2.1382,2.1377,2.138,2.1377,2.1365,2.137,2.1419,2.1426,2.1432,2.1437,2.1364,2.1364,2.1319,2.1319,2.1318]}]]